
Distance (Route):
Temperature : -19.3°C
Humidity : 43.0%
Pressure : 0hPa| Receiver | Frames | First received | Last received |
|---|---|---|---|
| LY3OO-11 | 242 | 2026-09-01 11:32:51 | 2026-09-01 13:20:00 |
| Receiver | Date | Latitude | Longitude | Direction | Speed | Altitude | Climb | Temperature | Humidity | Pressure | Voltage | Killtimer | Uptime | BKT | XDATA |
|---|---|---|---|---|---|---|---|---|---|---|---|---|---|---|---|
| LY3OO-11 | 2026-09-01 13:20:00 | 0.36977 | -40.85433 | 0° | 0km/h | 1m | 0.0m/s | -19.3°C | 43.0% | 0hPa | 0V | 00:00:00 | 00:00:00 | 00:00:00 | |
| LY3OO-11 | 2026-09-01 13:19:39 | 0.36977 | -40.85433 | 0° | 0km/h | 1m | 0.0m/s | -22.3°C | 51.0% | 0hPa | 0V | 00:00:00 | 00:00:00 | 00:00:00 | |
| LY3OO-11 | 2026-09-01 13:18:55 | 0.36977 | -40.85433 | 0° | 0km/h | 1m | 0.0m/s | -28.6°C | 23.9% | 0hPa | 0V | 00:00:00 | 00:00:00 | 00:00:00 | |
| LY3OO-11 | 2026-09-01 13:18:33 | 0.36977 | -40.85433 | 0° | 0km/h | 1m | 0.0m/s | -31.6°C | 59.1% | 0hPa | 0V | 00:00:00 | 00:00:00 | 00:00:00 | |
| LY3OO-11 | 2026-09-01 13:18:10 | 0.36977 | -40.85433 | 0° | 0km/h | 1m | 0.0m/s | -34.6°C | 57.0% | 0hPa | 0V | 00:00:00 | 00:00:00 | 00:00:00 | |
| LY3OO-11 | 2026-09-01 13:17:49 | 0.36977 | -40.85433 | 0° | 0km/h | 1m | 0.0m/s | -37.8°C | 55.3% | 0hPa | 0V | 00:00:00 | 00:00:00 | 00:00:00 | |
| LY3OO-11 | 2026-09-01 13:17:23 | 0.36977 | -40.85433 | 0° | 0km/h | 1m | 0.0m/s | -42.4°C | 53.8% | 0hPa | 0V | 00:00:00 | 00:00:00 | 00:00:00 | |
| LY3OO-11 | 2026-09-01 13:16:40 | 0.36977 | -40.85433 | 0° | 0km/h | 1m | 0.0m/s | -49.6°C | 52.5% | 0hPa | 0V | 00:00:00 | 00:00:00 | 00:00:00 | |
| LY3OO-11 | 2026-09-01 13:16:17 | 0.36977 | -40.85433 | 0° | 0km/h | 1m | 0.0m/s | -48.4°C | 10.2% | 0hPa | 0V | 00:00:00 | 00:00:00 | 00:00:00 | |
| LY3OO-11 | 2026-09-01 13:15:56 | 0.36977 | -40.85433 | 0° | 0km/h | 1m | 0.0m/s | -46.5°C | 4.9% | 0hPa | 0V | 00:00:00 | 00:00:00 | 00:00:00 | |
| LY3OO-11 | 2026-09-01 13:15:35 | 0.36977 | -40.85433 | 0° | 0km/h | 1m | 0.0m/s | -48.4°C | 5.4% | 0hPa | 0V | 00:00:00 | 00:00:00 | 00:00:00 | |
| LY3OO-11 | 2026-09-01 13:15:14 | 0.36977 | -40.85433 | 0° | 0km/h | 1m | 0.0m/s | -47.7°C | 3.6% | 0hPa | 0V | 00:00:00 | 00:00:00 | 00:00:00 | |
| LY3OO-11 | 2026-09-01 13:14:32 | 0.36977 | -40.85433 | 0° | 0km/h | 1m | 0.0m/s | -47.6°C | 3.2% | 0hPa | 0V | 00:00:00 | 00:00:00 | 00:00:00 | |
| LY3OO-11 | 2026-09-01 13:14:08 | 0.36977 | -40.85433 | 0° | 0km/h | 1m | 0.0m/s | -46.7°C | 2.9% | 0hPa | 0V | 00:00:00 | 00:00:00 | 00:00:00 | |
| LY3OO-11 | 2026-09-01 13:13:48 | 0.36977 | -40.85433 | 0° | 0km/h | 1m | 0.0m/s | -47.6°C | 3.1% | 0hPa | 0V | 00:00:00 | 00:00:00 | 00:00:00 | |
| LY3OO-11 | 2026-09-01 13:13:28 | 0.36977 | -40.85433 | 0° | 0km/h | 1m | 0.0m/s | -49.3°C | 3.4% | 0hPa | 0V | 00:00:00 | 00:00:00 | 00:00:00 | |
| LY3OO-11 | 2026-09-01 13:13:07 | 0.36977 | -40.85433 | 0° | 0km/h | 1m | 0.0m/s | -49.3°C | 3.5% | 0hPa | 0V | 00:00:00 | 00:00:00 | 00:00:00 | |
| LY3OO-11 | 2026-09-01 13:12:46 | 0.36977 | -40.85433 | 0° | 0km/h | 1m | 0.0m/s | -49.4°C | 3.4% | 0hPa | 0V | 00:00:00 | 00:00:00 | 00:00:00 | |
| LY3OO-11 | 2026-09-01 13:12:26 | 0.36977 | -40.85433 | 0° | 0km/h | 1m | 0.0m/s | -48.2°C | 3.0% | 0hPa | 0V | 00:00:00 | 00:00:00 | 00:00:00 | |
| LY3OO-11 | 2026-09-01 13:12:06 | 0.36977 | -40.85433 | 0° | 0km/h | 1m | 0.0m/s | -49.4°C | 3.1% | 0hPa | 0V | 00:00:00 | 00:00:00 | 00:00:00 | |
| LY3OO-11 | 2026-09-01 13:11:18 | 0.36977 | -40.85433 | 0° | 0km/h | 1m | 0.0m/s | -50.8°C | 3.7% | 0hPa | 0V | 00:00:00 | 00:00:00 | 00:00:00 | |
| LY3OO-11 | 2026-09-01 13:09:40 | 0.36977 | -40.85433 | 0° | 0km/h | 1m | 0.0m/s | -49.7°C | 3.6% | 0hPa | 0V | 00:00:00 | 00:00:00 | 00:00:00 | |
| LY3OO-11 | 2026-09-01 13:09:20 | 0.36977 | -40.85433 | 0° | 0km/h | 1m | 0.0m/s | -49.1°C | 3.8% | 0hPa | 0V | 00:00:00 | 00:00:00 | 00:00:00 | |
| LY3OO-11 | 2026-09-01 13:08:41 | 0.36977 | -40.85433 | 0° | 0km/h | 1m | 0.0m/s | -42.8°C | 2.6% | 0hPa | 0V | 00:00:00 | 00:00:00 | 00:00:00 | |
| LY3OO-11 | 2026-09-01 13:08:18 | 0.36977 | -40.85433 | 0° | 0km/h | 1m | 0.0m/s | -43.3°C | 2.7% | 0hPa | 0V | 00:00:00 | 00:00:00 | 00:00:00 | |
| LY3OO-11 | 2026-09-01 13:07:57 | 0.36977 | -40.85433 | 0° | 0km/h | 1m | 0.0m/s | -43.6°C | 2.7% | 0hPa | 0V | 00:00:00 | 00:00:00 | 00:00:00 | |
| LY3OO-11 | 2026-09-01 13:07:36 | 0.36977 | -40.85433 | 0° | 0km/h | 1m | 0.0m/s | -44.1°C | 3.0% | 0hPa | 0V | 00:00:00 | 00:00:00 | 00:00:00 | |
| LY3OO-11 | 2026-09-01 13:07:16 | 0.36977 | -40.85433 | 0° | 0km/h | 1m | 0.0m/s | -43.8°C | 2.7% | 0hPa | 0V | 00:00:00 | 00:00:00 | 00:00:00 | |
| LY3OO-11 | 2026-09-01 13:06:56 | 0.36977 | -40.85433 | 0° | 0km/h | 1m | 0.0m/s | -43.8°C | 3.0% | 0hPa | 0V | 00:00:00 | 00:00:00 | 00:00:00 | |
| LY3OO-11 | 2026-09-01 13:06:35 | 0.36977 | -40.85433 | 0° | 0km/h | 1m | 0.0m/s | -44.4°C | 2.8% | 0hPa | 0V | 00:00:00 | 00:00:00 | 00:00:00 | |
| LY3OO-11 | 2026-09-01 13:06:15 | 0.36977 | -40.85433 | 0° | 0km/h | 1m | 0.0m/s | -44.5°C | 2.8% | 0hPa | 0V | 00:00:00 | 00:00:00 | 00:00:00 | |
| LY3OO-11 | 2026-09-01 13:05:54 | 0.36977 | -40.85433 | 0° | 0km/h | 1m | 0.0m/s | -44.7°C | 2.9% | 0hPa | 0V | 00:00:00 | 00:00:00 | 00:00:00 | |
| LY3OO-11 | 2026-09-01 13:05:33 | 0.36977 | -40.85433 | 0° | 0km/h | 1m | 0.0m/s | -44.9°C | 2.8% | 0hPa | 0V | 00:00:00 | 00:00:00 | 00:00:00 | |
| LY3OO-11 | 2026-09-01 13:05:13 | 0.36977 | -40.85433 | 0° | 0km/h | 1m | 0.0m/s | -45.5°C | 2.8% | 0hPa | 0V | 00:00:00 | 00:00:00 | 00:00:00 | |
| LY3OO-11 | 2026-09-01 13:04:52 | 0.36977 | -40.85433 | 0° | 0km/h | 1m | 0.0m/s | -45.7°C | 2.9% | 0hPa | 0V | 00:00:00 | 00:00:00 | 00:00:00 | |
| LY3OO-11 | 2026-09-01 13:04:31 | 0.36977 | -40.85433 | 0° | 0km/h | 1m | 0.0m/s | -45.9°C | 3.0% | 0hPa | 0V | 00:00:00 | 00:00:00 | 00:00:00 | |
| LY3OO-11 | 2026-09-01 13:04:10 | 0.36977 | -40.85433 | 0° | 0km/h | 1m | 0.0m/s | -46.4°C | 3.1% | 0hPa | 0V | 00:00:00 | 00:00:00 | 00:00:00 | |
| LY3OO-11 | 2026-09-01 13:03:50 | 0.36977 | -40.85433 | 0° | 0km/h | 1m | 0.0m/s | -46.5°C | 3.1% | 0hPa | 0V | 00:00:00 | 00:00:00 | 00:00:00 | |
| LY3OO-11 | 2026-09-01 13:03:30 | 0.36977 | -40.85433 | 0° | 0km/h | 1m | 0.0m/s | -46.5°C | 3.1% | 0hPa | 0V | 00:00:00 | 00:00:00 | 00:00:00 | |
| LY3OO-11 | 2026-09-01 13:03:09 | 0.36977 | -40.85433 | 0° | 0km/h | 1m | 0.0m/s | -46.9°C | 3.2% | 0hPa | 0V | 00:00:00 | 00:00:00 | 00:00:00 | |
| LY3OO-11 | 2026-09-01 13:02:48 | 0.36977 | -40.85433 | 0° | 0km/h | 1m | 0.0m/s | -46.8°C | 3.1% | 0hPa | 0V | 00:00:00 | 00:00:00 | 00:00:00 | |
| LY3OO-11 | 2026-09-01 13:02:28 | 0.36977 | -40.85433 | 0° | 0km/h | 1m | 0.0m/s | -47.0°C | 3.2% | 0hPa | 0V | 00:00:00 | 00:00:00 | 00:00:00 | |
| LY3OO-11 | 2026-09-01 13:02:06 | 0.36977 | -40.85433 | 0° | 0km/h | 1m | 0.0m/s | -47.2°C | 3.3% | 0hPa | 0V | 00:00:00 | 00:00:00 | 00:00:00 | |
| LY3OO-11 | 2026-09-01 13:01:47 | 0.36977 | -40.85433 | 0° | 0km/h | 1m | 0.0m/s | -46.9°C | 3.2% | 0hPa | 0V | 00:00:00 | 00:00:00 | 00:00:00 | |
| LY3OO-11 | 2026-09-01 13:01:20 | 0.36977 | -40.85433 | 0° | 0km/h | 1m | 0.0m/s | -47.7°C | 3.2% | 0hPa | 0V | 00:00:00 | 00:00:00 | 00:00:00 | |
| LY3OO-11 | 2026-09-01 13:01:00 | 0.36977 | -40.85433 | 0° | 0km/h | 1m | 0.0m/s | -47.9°C | 3.2% | 0hPa | 0V | 00:00:00 | 00:00:00 | 00:00:00 | |
| LY3OO-11 | 2026-09-01 13:00:31 | 0.36977 | -40.85433 | 0° | 0km/h | 1m | 0.0m/s | -48.8°C | 3.4% | 0hPa | 0V | 00:00:00 | 00:00:00 | 00:00:00 | |
| LY3OO-11 | 2026-09-01 13:00:01 | 0.36977 | -40.85433 | 0° | 0km/h | 1m | 0.0m/s | -49.1°C | 3.3% | 0hPa | 0V | 00:00:00 | 00:00:00 | 00:00:00 | |
| LY3OO-11 | 2026-09-01 12:59:38 | 0.36977 | -40.85433 | 0° | 0km/h | 1m | 0.0m/s | -49.2°C | 3.4% | 0hPa | 0V | 00:00:00 | 00:00:00 | 00:00:00 | |
| LY3OO-11 | 2026-09-01 12:59:17 | 0.36977 | -40.85433 | 0° | 0km/h | 1m | 0.0m/s | -49.7°C | 3.5% | 0hPa | 0V | 00:00:00 | 00:00:00 | 00:00:00 | |
| LY3OO-11 | 2026-09-01 12:58:57 | 0.36977 | -40.85433 | 0° | 0km/h | 1m | 0.0m/s | -49.9°C | 3.5% | 0hPa | 0V | 00:00:00 | 00:00:00 | 00:00:00 | |
| LY3OO-11 | 2026-09-01 12:58:36 | 0.36977 | -40.85433 | 0° | 0km/h | 1m | 0.0m/s | -50.5°C | 3.6% | 0hPa | 0V | 00:00:00 | 00:00:00 | 00:00:00 | |
| LY3OO-11 | 2026-09-01 12:58:15 | 0.36977 | -40.85433 | 0° | 0km/h | 1m | 0.0m/s | -50.4°C | 3.7% | 0hPa | 0V | 00:00:00 | 00:00:00 | 00:00:00 | |
| LY3OO-11 | 2026-09-01 12:57:55 | 0.36977 | -40.85433 | 0° | 0km/h | 1m | 0.0m/s | -50.1°C | 3.6% | 0hPa | 0V | 00:00:00 | 00:00:00 | 00:00:00 | |
| LY3OO-11 | 2026-09-01 12:57:34 | 0.36977 | -40.85433 | 0° | 0km/h | 1m | 0.0m/s | -50.1°C | 3.6% | 0hPa | 0V | 00:00:00 | 00:00:00 | 00:00:00 | |
| LY3OO-11 | 2026-09-01 12:57:15 | 0.36977 | -40.85433 | 0° | 0km/h | 1m | 0.0m/s | -50.7°C | 3.7% | 0hPa | 0V | 00:00:00 | 00:00:00 | 00:00:00 | |
| LY3OO-11 | 2026-09-01 12:56:54 | 0.36977 | -40.85433 | 0° | 0km/h | 1m | 0.0m/s | -50.6°C | 3.7% | 0hPa | 0V | 00:00:00 | 00:00:00 | 00:00:00 | |
| LY3OO-11 | 2026-09-01 12:56:33 | 0.36977 | -40.85433 | 0° | 0km/h | 1m | 0.0m/s | -50.5°C | 3.6% | 0hPa | 0V | 00:00:00 | 00:00:00 | 00:00:00 | |
| LY3OO-11 | 2026-09-01 12:56:13 | 0.36977 | -40.85433 | 0° | 0km/h | 1m | 0.0m/s | -50.5°C | 3.5% | 0hPa | 0V | 00:00:00 | 00:00:00 | 00:00:00 | |
| LY3OO-11 | 2026-09-01 12:55:51 | 0.36977 | -40.85433 | 0° | 0km/h | 1m | 0.0m/s | -51.6°C | 3.8% | 0hPa | 0V | 00:00:00 | 00:00:00 | 00:00:00 | |
| LY3OO-11 | 2026-09-01 12:55:31 | 0.36977 | -40.85433 | 0° | 0km/h | 1m | 0.0m/s | -52.0°C | 3.9% | 0hPa | 0V | 00:00:00 | 00:00:00 | 00:00:00 | |
| LY3OO-11 | 2026-09-01 12:55:12 | 0.36977 | -40.85433 | 0° | 0km/h | 1m | 0.0m/s | -51.6°C | 3.8% | 0hPa | 0V | 00:00:00 | 00:00:00 | 00:00:00 | |
| LY3OO-11 | 2026-09-01 12:54:50 | 0.36977 | -40.85433 | 0° | 0km/h | 1m | 0.0m/s | -51.4°C | 3.9% | 0hPa | 0V | 00:00:00 | 00:00:00 | 00:00:00 | |
| LY3OO-11 | 2026-09-01 12:54:29 | 0.36977 | -40.85433 | 0° | 0km/h | 1m | 0.0m/s | -51.3°C | 3.8% | 0hPa | 0V | 00:00:00 | 00:00:00 | 00:00:00 | |
| LY3OO-11 | 2026-09-01 12:54:09 | 0.36977 | -40.85433 | 0° | 0km/h | 1m | 0.0m/s | -50.9°C | 3.7% | 0hPa | 0V | 00:00:00 | 00:00:00 | 00:00:00 | |
| LY3OO-11 | 2026-09-01 12:53:47 | 0.36977 | -40.85433 | 0° | 0km/h | 1m | 0.0m/s | -50.4°C | 3.7% | 0hPa | 0V | 00:00:00 | 00:00:00 | 00:00:00 | |
| LY3OO-11 | 2026-09-01 12:53:27 | 0.36977 | -40.85433 | 0° | 0km/h | 1m | 0.0m/s | -50.5°C | 3.6% | 0hPa | 0V | 00:00:00 | 00:00:00 | 00:00:00 | |
| LY3OO-11 | 2026-09-01 12:53:06 | 0.36977 | -40.85433 | 0° | 0km/h | 1m | 0.0m/s | -50.8°C | 3.6% | 0hPa | 0V | 00:00:00 | 00:00:00 | 00:00:00 | |
| LY3OO-11 | 2026-09-01 12:52:46 | 0.36977 | -40.85433 | 0° | 0km/h | 1m | 0.0m/s | -51.4°C | 3.8% | 0hPa | 0V | 00:00:00 | 00:00:00 | 00:00:00 | |
| LY3OO-11 | 2026-09-01 12:52:27 | 0.36977 | -40.85433 | 0° | 0km/h | 1m | 0.0m/s | -51.9°C | 3.8% | 0hPa | 0V | 00:00:00 | 00:00:00 | 00:00:00 | |
| LY3OO-11 | 2026-09-01 12:52:06 | 0.36977 | -40.85433 | 0° | 0km/h | 1m | 0.0m/s | -52.0°C | 3.9% | 0hPa | 0V | 00:00:00 | 00:00:00 | 00:00:00 | |
| LY3OO-11 | 2026-09-01 12:51:45 | 0.36977 | -40.85433 | 0° | 0km/h | 1m | 0.0m/s | -52.0°C | 4.0% | 0hPa | 0V | 00:00:00 | 00:00:00 | 00:00:00 | |
| LY3OO-11 | 2026-09-01 12:51:24 | 0.36977 | -40.85433 | 0° | 0km/h | 1m | 0.0m/s | -51.7°C | 4.1% | 0hPa | 0V | 00:00:00 | 00:00:00 | 00:00:00 | |
| LY3OO-11 | 2026-09-01 12:51:04 | 0.36977 | -40.85433 | 0° | 0km/h | 1m | 0.0m/s | -51.0°C | 3.9% | 0hPa | 0V | 00:00:00 | 00:00:00 | 00:00:00 | |
| LY3OO-11 | 2026-09-01 12:50:43 | 0.36977 | -40.85433 | 0° | 0km/h | 1m | 0.0m/s | -50.4°C | 3.6% | 0hPa | 0V | 00:00:00 | 00:00:00 | 00:00:00 | |
| LY3OO-11 | 2026-09-01 12:50:22 | 0.36977 | -40.85433 | 0° | 0km/h | 1m | 0.0m/s | -50.3°C | 3.6% | 0hPa | 0V | 00:00:00 | 00:00:00 | 00:00:00 | |
| LY3OO-11 | 2026-09-01 12:50:02 | 0.36977 | -40.85433 | 0° | 0km/h | 1m | 0.0m/s | -50.2°C | 3.6% | 0hPa | 0V | 00:00:00 | 00:00:00 | 00:00:00 | |
| LY3OO-11 | 2026-09-01 12:49:40 | 0.36977 | -40.85433 | 0° | 0km/h | 1m | 0.0m/s | -50.7°C | 3.6% | 0hPa | 0V | 00:00:00 | 00:00:00 | 00:00:00 | |
| LY3OO-11 | 2026-09-01 12:49:19 | 0.36977 | -40.85433 | 0° | 0km/h | 1m | 0.0m/s | -51.3°C | 3.7% | 0hPa | 0V | 00:00:00 | 00:00:00 | 00:00:00 | |
| LY3OO-11 | 2026-09-01 12:48:58 | 0.36977 | -40.85433 | 0° | 0km/h | 1m | 0.0m/s | -51.9°C | 3.8% | 0hPa | 0V | 00:00:00 | 00:00:00 | 00:00:00 | |
| LY3OO-11 | 2026-09-01 12:48:37 | 0.36977 | -40.85433 | 0° | 0km/h | 1m | 0.0m/s | -51.8°C | 3.6% | 0hPa | 0V | 00:00:00 | 00:00:00 | 00:00:00 | |
| LY3OO-11 | 2026-09-01 12:48:16 | 0.36977 | -40.85433 | 0° | 0km/h | 1m | 0.0m/s | -52.8°C | 4.0% | 0hPa | 0V | 00:00:00 | 00:00:00 | 00:00:00 | |
| LY3OO-11 | 2026-09-01 12:46:39 | 0.36977 | -40.85433 | 0° | 0km/h | 1m | 0.0m/s | -52.4°C | 4.0% | 0hPa | 0V | 00:00:00 | 00:00:00 | 00:00:00 | |
| LY3OO-11 | 2026-09-01 12:46:19 | 0.36977 | -40.85433 | 0° | 0km/h | 1m | 0.0m/s | -51.6°C | 3.9% | 0hPa | 0V | 00:00:00 | 00:00:00 | 00:00:00 | |
| LY3OO-11 | 2026-09-01 12:45:58 | 0.36977 | -40.85433 | 0° | 0km/h | 1m | 0.0m/s | -50.6°C | 3.6% | 0hPa | 0V | 00:00:00 | 00:00:00 | 00:00:00 | |
| LY3OO-11 | 2026-09-01 12:45:37 | 0.36977 | -40.85433 | 0° | 0km/h | 1m | 0.0m/s | -50.6°C | 3.7% | 0hPa | 0V | 00:00:00 | 00:00:00 | 00:00:00 | |
| LY3OO-11 | 2026-09-01 12:43:57 | 0.36977 | -40.85433 | 0° | 0km/h | 1m | 0.0m/s | -51.3°C | 3.6% | 0hPa | 0V | 00:00:00 | 00:00:00 | 00:00:00 | |
| LY3OO-11 | 2026-09-01 12:43:34 | 0.36977 | -40.85433 | 0° | 0km/h | 1m | 0.0m/s | -52.0°C | 3.9% | 0hPa | 0V | 00:00:00 | 00:00:00 | 00:00:00 | |
| LY3OO-11 | 2026-09-01 12:43:13 | 0.36977 | -40.85433 | 0° | 0km/h | 1m | 0.0m/s | -51.7°C | 3.9% | 0hPa | 0V | 00:00:00 | 00:00:00 | 00:00:00 | |
| LY3OO-11 | 2026-09-01 12:42:48 | 0.36977 | -40.85433 | 0° | 0km/h | 1m | 0.0m/s | -51.6°C | 3.8% | 0hPa | 0V | 00:00:00 | 00:00:00 | 00:00:00 | |
| LY3OO-11 | 2026-09-01 12:42:27 | 0.36977 | -40.85433 | 0° | 0km/h | 1m | 0.0m/s | -51.5°C | 3.7% | 0hPa | 0V | 00:00:00 | 00:00:00 | 00:00:00 | |
| LY3OO-11 | 2026-09-01 12:42:05 | 0.36977 | -40.85433 | 0° | 0km/h | 1m | 0.0m/s | -52.2°C | 4.0% | 0hPa | 0V | 00:00:00 | 00:00:00 | 00:00:00 | |
| LY3OO-11 | 2026-09-01 12:41:44 | 0.36977 | -40.85433 | 0° | 0km/h | 1m | 0.0m/s | -52.5°C | 4.0% | 0hPa | 0V | 00:00:00 | 00:00:00 | 00:00:00 | |
| LY3OO-11 | 2026-09-01 12:41:21 | 0.36977 | -40.85433 | 0° | 0km/h | 1m | 0.0m/s | -52.5°C | 4.0% | 0hPa | 0V | 00:00:00 | 00:00:00 | 00:00:00 | |
| LY3OO-11 | 2026-09-01 12:41:01 | 0.36977 | -40.85433 | 0° | 0km/h | 1m | 0.0m/s | -52.5°C | 4.0% | 0hPa | 0V | 00:00:00 | 00:00:00 | 00:00:00 | |
| LY3OO-11 | 2026-09-01 12:40:40 | 0.36977 | -40.85433 | 0° | 0km/h | 1m | 0.0m/s | -52.3°C | 3.9% | 0hPa | 0V | 00:00:00 | 00:00:00 | 00:00:00 | |
| LY3OO-11 | 2026-09-01 12:40:20 | 0.36977 | -40.85433 | 0° | 0km/h | 1m | 0.0m/s | -52.6°C | 4.0% | 0hPa | 0V | 00:00:00 | 00:00:00 | 00:00:00 | |
| LY3OO-11 | 2026-09-01 12:40:00 | 0.36977 | -40.85433 | 0° | 0km/h | 1m | 0.0m/s | -52.4°C | 4.0% | 0hPa | 0V | 00:00:00 | 00:00:00 | 00:00:00 | |
| LY3OO-11 | 2026-09-01 12:39:39 | 0.36977 | -40.85433 | 0° | 0km/h | 1m | 0.0m/s | -52.2°C | 4.0% | 0hPa | 0V | 00:00:00 | 00:00:00 | 00:00:00 | |
| LY3OO-11 | 2026-09-01 12:39:19 | 0.36977 | -40.85433 | 0° | 0km/h | 1m | 0.0m/s | -51.7°C | 3.9% | 0hPa | 0V | 00:00:00 | 00:00:00 | 00:00:00 | |
| LY3OO-11 | 2026-09-01 12:38:57 | 0.36977 | -40.85433 | 0° | 0km/h | 1m | 0.0m/s | -51.4°C | 3.6% | 0hPa | 0V | 00:00:00 | 00:00:00 | 00:00:00 | |
| LY3OO-11 | 2026-09-01 12:38:36 | 0.36977 | -40.85433 | 0° | 0km/h | 1m | 0.0m/s | -52.0°C | 3.9% | 0hPa | 0V | 00:00:00 | 00:00:00 | 00:00:00 | |
| LY3OO-11 | 2026-09-01 12:38:16 | 0.36977 | -40.85433 | 0° | 0km/h | 1m | 0.0m/s | -51.5°C | 3.8% | 0hPa | 0V | 00:00:00 | 00:00:00 | 00:00:00 | |
| LY3OO-11 | 2026-09-01 12:37:55 | 0.36977 | -40.85433 | 0° | 0km/h | 1m | 0.0m/s | -51.0°C | 3.7% | 0hPa | 0V | 00:00:00 | 00:00:00 | 00:00:00 | |
| LY3OO-11 | 2026-09-01 12:37:34 | 0.36977 | -40.85433 | 0° | 0km/h | 1m | 0.0m/s | -51.1°C | 3.8% | 0hPa | 0V | 00:00:00 | 00:00:00 | 00:00:00 | |
| LY3OO-11 | 2026-09-01 12:37:13 | 0.36977 | -40.85433 | 0° | 0km/h | 1m | 0.0m/s | -50.6°C | 3.8% | 0hPa | 0V | 00:00:00 | 00:00:00 | 00:00:00 | |
| LY3OO-11 | 2026-09-01 12:36:53 | 0.36977 | -40.85433 | 0° | 0km/h | 1m | 0.0m/s | -50.9°C | 3.7% | 0hPa | 0V | 00:00:00 | 00:00:00 | 00:00:00 | |
| LY3OO-11 | 2026-09-01 12:36:32 | 0.36977 | -40.85433 | 0° | 0km/h | 1m | 0.0m/s | -50.5°C | 3.6% | 0hPa | 0V | 00:00:00 | 00:00:00 | 00:00:00 | |
| LY3OO-11 | 2026-09-01 12:36:10 | 0.36977 | -40.85433 | 0° | 0km/h | 1m | 0.0m/s | -49.9°C | 3.5% | 0hPa | 0V | 00:00:00 | 00:00:00 | 00:00:00 | |
| LY3OO-11 | 2026-09-01 12:35:45 | 0.36977 | -40.85433 | 0° | 0km/h | 1m | 0.0m/s | -49.8°C | 3.5% | 0hPa | 0V | 00:00:00 | 00:00:00 | 00:00:00 | |
| LY3OO-11 | 2026-09-01 12:35:23 | 0.36977 | -40.85433 | 0° | 0km/h | 1m | 0.0m/s | -50.9°C | 3.6% | 0hPa | 0V | 00:00:00 | 00:00:00 | 00:00:00 | |
| LY3OO-11 | 2026-09-01 12:35:03 | 0.36977 | -40.85433 | 0° | 0km/h | 1m | 0.0m/s | -51.4°C | 3.8% | 0hPa | 0V | 00:00:00 | 00:00:00 | 00:00:00 | |
| LY3OO-11 | 2026-09-01 12:34:42 | 0.36977 | -40.85433 | 0° | 0km/h | 1m | 0.0m/s | -50.9°C | 3.7% | 0hPa | 0V | 00:00:00 | 00:00:00 | 00:00:00 | |
| LY3OO-11 | 2026-09-01 12:34:21 | 0.36977 | -40.85433 | 0° | 0km/h | 1m | 0.0m/s | -51.1°C | 3.8% | 0hPa | 0V | 00:00:00 | 00:00:00 | 00:00:00 | |
| LY3OO-11 | 2026-09-01 12:34:00 | 0.36977 | -40.85433 | 0° | 0km/h | 1m | 0.0m/s | -50.6°C | 3.6% | 0hPa | 0V | 00:00:00 | 00:00:00 | 00:00:00 | |
| LY3OO-11 | 2026-09-01 12:33:37 | 0.36977 | -40.85433 | 0° | 0km/h | 1m | 0.0m/s | -50.7°C | 3.7% | 0hPa | 0V | 00:00:00 | 00:00:00 | 00:00:00 | |
| LY3OO-11 | 2026-09-01 12:33:16 | 0.36977 | -40.85433 | 0° | 0km/h | 1m | 0.0m/s | -50.6°C | 3.7% | 0hPa | 0V | 00:00:00 | 00:00:00 | 00:00:00 | |
| LY3OO-11 | 2026-09-01 12:32:51 | 0.36977 | -40.85433 | 0° | 0km/h | 1m | 0.0m/s | -50.1°C | 3.6% | 0hPa | 0V | 00:00:00 | 00:00:00 | 00:00:00 | |
| LY3OO-11 | 2026-09-01 12:32:30 | 0.36977 | -40.85433 | 0° | 0km/h | 1m | 0.0m/s | -50.7°C | 1.1% | 0hPa | 0V | 00:00:00 | 00:00:00 | 00:00:00 | |
| LY3OO-11 | 2026-09-01 12:32:05 | 55.06857 | 24.21503 | 0° | 0km/h | 17687m | 0.0m/s | -50.9°C | 1.1% | 0hPa | 0V | 00:00:00 | 00:00:00 | 00:00:00 | |
| LY3OO-11 | 2026-09-01 12:30:00 | 55.06857 | 24.21503 | 0° | 0km/h | 17687m | 0.0m/s | -49.8°C | 1.2% | 0hPa | 0V | 00:00:00 | 00:00:00 | 00:00:00 | |
| LY3OO-11 | 2026-09-01 12:19:15 | 55.04153 | 24.11892 | 42° | 51km/h | 14126m | 2.6m/s | -47.8°C | 1.2% | 0hPa | 0V | 00:00:00 | 00:00:00 | 00:00:00 | |
| LY3OO-11 | 2026-09-01 12:18:34 | 55.03779 | 24.11306 | 59° | 58km/h | 13911m | 4.2m/s | -48.0°C | 1.3% | 0hPa | 0V | 00:00:00 | 00:00:00 | 00:00:00 | |
| LY3OO-11 | 2026-09-01 12:18:12 | 55.03625 | 24.10820 | 54° | 62km/h | 13805m | 5.2m/s | -48.9°C | 1.4% | 0hPa | 0V | 00:00:00 | 00:00:00 | 00:00:00 | |
| LY3OO-11 | 2026-09-01 12:17:52 | 55.03423 | 24.10390 | 46° | 64km/h | 13694m | 7.8m/s | -48.9°C | 1.4% | 0hPa | 0V | 00:00:00 | 00:00:00 | 00:00:00 | |
| LY3OO-11 | 2026-09-01 12:16:42 | 55.02936 | 24.09128 | 50° | 42km/h | 13354m | 4.1m/s | -47.9°C | 1.3% | 0hPa | 0V | 00:00:00 | 00:00:00 | 00:00:00 | |
| LY3OO-11 | 2026-09-01 12:16:22 | 55.02785 | 24.08854 | 46° | 40km/h | 13271m | 3.9m/s | -48.4°C | 1.5% | 0hPa | 0V | 00:00:00 | 00:00:00 | 00:00:00 | |
| LY3OO-11 | 2026-09-01 12:13:34 | 55.01838 | 24.06337 | 63° | 40km/h | 12654m | 4.5m/s | -47.4°C | 1.4% | 0hPa | 0V | 00:00:00 | 00:00:00 | 00:00:00 | |
| LY3OO-11 | 2026-09-01 12:13:12 | 55.01754 | 24.05999 | 70° | 38km/h | 12572m | 3.5m/s | -47.0°C | 1.4% | 0hPa | 0V | 00:00:00 | 00:00:00 | 00:00:00 | |
| LY3OO-11 | 2026-09-01 12:12:51 | 55.01664 | 24.05697 | 49° | 35km/h | 12493m | 5.9m/s | -47.3°C | 1.4% | 0hPa | 0V | 00:00:00 | 00:00:00 | 00:00:00 | |
| LY3OO-11 | 2026-09-01 12:12:31 | 55.01566 | 24.05427 | 64° | 42km/h | 12395m | 6.3m/s | -46.7°C | 1.4% | 0hPa | 0V | 00:00:00 | 00:00:00 | 00:00:00 | |
| LY3OO-11 | 2026-09-01 12:12:11 | 55.01497 | 24.05105 | 88° | 35km/h | 12262m | 5.0m/s | -45.8°C | 1.3% | 0hPa | 0V | 00:00:00 | 00:00:00 | 00:00:00 | |
| LY3OO-11 | 2026-09-01 12:11:49 | 55.01457 | 24.04757 | 62° | 38km/h | 12125m | 6.7m/s | -45.9°C | 1.4% | 0hPa | 0V | 00:00:00 | 00:00:00 | 00:00:00 | |
| LY3OO-11 | 2026-09-01 12:11:29 | 55.01373 | 24.04465 | 62° | 35km/h | 12010m | 6.7m/s | -45.2°C | 1.3% | 0hPa | 0V | 00:00:00 | 00:00:00 | 00:00:00 | |
| LY3OO-11 | 2026-09-01 12:11:09 | 55.01304 | 24.04224 | 84° | 33km/h | 11911m | 5.4m/s | -45.5°C | 1.5% | 0hPa | 0V | 00:00:00 | 00:00:00 | 00:00:00 | |
| LY3OO-11 | 2026-09-01 12:10:48 | 55.01173 | 24.03871 | 64° | 53km/h | 11781m | 5.1m/s | -45.7°C | 1.7% | 0hPa | 0V | 00:00:00 | 00:00:00 | 00:00:00 | |
| LY3OO-11 | 2026-09-01 12:10:27 | 55.01026 | 24.03460 | 51° | 60km/h | 11665m | 8.2m/s | -46.8°C | 2.2% | 0hPa | 0V | 00:00:00 | 00:00:00 | 00:00:00 | |
| LY3OO-11 | 2026-09-01 12:10:05 | 55.00828 | 24.03082 | 49° | 55km/h | 11521m | 4.5m/s | -46.8°C | 2.3% | 0hPa | 0V | 00:00:00 | 00:00:00 | 00:00:00 | |
| LY3OO-11 | 2026-09-01 12:09:39 | 55.00563 | 24.02687 | 40° | 60km/h | 11371m | 7.2m/s | -47.1°C | 2.7% | 0hPa | 0V | 00:00:00 | 00:00:00 | 00:00:00 | |
| LY3OO-11 | 2026-09-01 12:09:19 | 55.00335 | 24.02409 | 33° | 51km/h | 11274m | 2.9m/s | -47.1°C | 3.1% | 0hPa | 0V | 00:00:00 | 00:00:00 | 00:00:00 | |
| LY3OO-11 | 2026-09-01 12:08:54 | 55.00024 | 24.02092 | 47° | 49km/h | 11149m | 3.9m/s | -47.4°C | 3.8% | 0hPa | 0V | 00:00:00 | 00:00:00 | 00:00:00 | |
| LY3OO-11 | 2026-09-01 12:08:33 | 54.99836 | 24.01716 | 57° | 55km/h | 11050m | 3.5m/s | -47.0°C | 4.1% | 0hPa | 0V | 00:00:00 | 00:00:00 | 00:00:00 | |
| LY3OO-11 | 2026-09-01 12:08:12 | 54.99667 | 24.01347 | 37° | 55km/h | 10948m | 4.1m/s | -47.1°C | 4.5% | 0hPa | 0V | 00:00:00 | 00:00:00 | 00:00:00 | |
| LY3OO-11 | 2026-09-01 12:07:52 | 54.99439 | 24.01071 | 24° | 58km/h | 10841m | 3.9m/s | -46.7°C | 4.9% | 0hPa | 0V | 00:00:00 | 00:00:00 | 00:00:00 | |
| LY3OO-11 | 2026-09-01 12:07:29 | 54.99156 | 24.00856 | 20° | 53km/h | 10741m | 4.1m/s | -46.9°C | 5.3% | 0hPa | 0V | 00:00:00 | 00:00:00 | 00:00:00 | |
| LY3OO-11 | 2026-09-01 12:07:08 | 54.98921 | 24.00701 | 27° | 53km/h | 10635m | 3.0m/s | -47.3°C | 5.8% | 0hPa | 0V | 00:00:00 | 00:00:00 | 00:00:00 | |
| LY3OO-11 | 2026-09-01 12:06:49 | 54.98671 | 24.00610 | 360° | 55km/h | 10534m | 4.9m/s | -46.9°C | 5.8% | 0hPa | 0V | 00:00:00 | 00:00:00 | 00:00:00 | |
| LY3OO-11 | 2026-09-01 12:06:27 | 54.98432 | 24.00529 | 15° | 51km/h | 10414m | 2.4m/s | -48.2°C | 7.0% | 0hPa | 0V | 00:00:00 | 00:00:00 | 00:00:00 | |
| LY3OO-11 | 2026-09-01 12:06:07 | 54.98171 | 24.00419 | 14° | 53km/h | 10324m | 4.8m/s | -48.6°C | 9.3% | 0hPa | 0V | 00:00:00 | 00:00:00 | 00:00:00 | |
| LY3OO-11 | 2026-09-01 12:05:46 | 54.97953 | 24.00229 | 15° | 44km/h | 10205m | 8.3m/s | -48.8°C | 13.7% | 0hPa | 0V | 00:00:00 | 00:00:00 | 00:00:00 | |
| LY3OO-11 | 2026-09-01 12:05:25 | 54.97705 | 24.00053 | 23° | 58km/h | 10072m | 5.5m/s | -49.8°C | 34.2% | 0hPa | 0V | 00:00:00 | 00:00:00 | 00:00:00 | |
| LY3OO-11 | 2026-09-01 12:05:04 | 54.97433 | 23.99876 | 41° | 26km/h | 9967m | 6.3m/s | -50.1°C | 33.9% | 0hPa | 0V | 00:00:00 | 00:00:00 | 00:00:00 | |
| LY3OO-11 | 2026-09-01 12:04:44 | 54.97280 | 23.99804 | 357° | 35km/h | 9855m | 6.6m/s | -49.2°C | 41.1% | 0hPa | 0V | 00:00:00 | 00:00:00 | 00:00:00 | |
| LY3OO-11 | 2026-09-01 12:04:24 | 54.97118 | 23.99818 | 348° | 33km/h | 9750m | 6.1m/s | -49.9°C | 59.1% | 0hPa | 0V | 00:00:00 | 00:00:00 | 00:00:00 | |
| LY3OO-11 | 2026-09-01 12:04:04 | 54.97043 | 24.00004 | 291° | 42km/h | 9641m | 5.3m/s | -49.3°C | 65.1% | 0hPa | 0V | 00:00:00 | 00:00:00 | 00:00:00 | |
| LY3OO-11 | 2026-09-01 12:03:43 | 54.97001 | 24.00218 | 251° | 22km/h | 9509m | 6.1m/s | -48.1°C | 59.4% | 0hPa | 0V | 00:00:00 | 00:00:00 | 00:00:00 | |
| LY3OO-11 | 2026-09-01 12:03:21 | 54.96955 | 24.00363 | 309° | 11km/h | 9395m | 6.8m/s | -47.2°C | 63.2% | 0hPa | 0V | 00:00:00 | 00:00:00 | 00:00:00 | |
| LY3OO-11 | 2026-09-01 12:03:01 | 54.96924 | 24.00492 | 324° | 18km/h | 9292m | 4.4m/s | -46.4°C | 64.7% | 0hPa | 0V | 00:00:00 | 00:00:00 | 00:00:00 | |
| LY3OO-11 | 2026-09-01 12:02:40 | 54.96906 | 24.00553 | 287° | 16km/h | 9188m | 6.7m/s | -45.5°C | 64.8% | 0hPa | 0V | 00:00:00 | 00:00:00 | 00:00:00 | |
| LY3OO-11 | 2026-09-01 12:02:21 | 54.96903 | 24.00674 | 256° | 20km/h | 9090m | 4.0m/s | -44.7°C | 66.5% | 0hPa | 0V | 00:00:00 | 00:00:00 | 00:00:00 | |
| LY3OO-11 | 2026-09-01 12:02:00 | 54.96895 | 24.00736 | 266° | 15km/h | 8978m | 5.0m/s | -43.8°C | 67.3% | 0hPa | 0V | 00:00:00 | 00:00:00 | 00:00:00 | |
| LY3OO-11 | 2026-09-01 12:01:39 | 54.96883 | 24.00727 | 316° | 9km/h | 8872m | 4.8m/s | -42.8°C | 67.4% | 0hPa | 0V | 00:00:00 | 00:00:00 | 00:00:00 | |
| LY3OO-11 | 2026-09-01 12:01:19 | 54.96870 | 24.00761 | 21° | 11km/h | 8765m | 3.2m/s | -42.0°C | 70.0% | 0hPa | 0V | 00:00:00 | 00:00:00 | 00:00:00 | |
| LY3OO-11 | 2026-09-01 12:00:58 | 54.96862 | 24.00758 | 279° | 4km/h | 8658m | 5.2m/s | -41.1°C | 69.9% | 0hPa | 0V | 00:00:00 | 00:00:00 | 00:00:00 | |
| LY3OO-11 | 2026-09-01 12:00:38 | 54.96830 | 24.00805 | 69° | 7km/h | 8539m | 4.1m/s | -40.0°C | 69.6% | 0hPa | 0V | 00:00:00 | 00:00:00 | 00:00:00 | |
| LY3OO-11 | 2026-09-01 12:00:18 | 54.96823 | 24.00818 | 214° | 9km/h | 8420m | 7.7m/s | -39.0°C | 70.3% | 0hPa | 0V | 00:00:00 | 00:00:00 | 00:00:00 | |
| LY3OO-11 | 2026-09-01 11:59:56 | 54.96801 | 24.00829 | 355° | 2km/h | 8309m | 6.0m/s | -38.1°C | 69.7% | 0hPa | 0V | 00:00:00 | 00:00:00 | 00:00:00 | |
| LY3OO-11 | 2026-09-01 11:59:16 | 54.96776 | 24.00765 | 125° | 7km/h | 8093m | 4.5m/s | -36.2°C | 70.7% | 0hPa | 0V | 00:00:00 | 00:00:00 | 00:00:00 | |
| LY3OO-11 | 2026-09-01 11:58:54 | 54.96757 | 24.00799 | 67° | 7km/h | 7986m | 6.6m/s | -35.2°C | 71.3% | 0hPa | 0V | 00:00:00 | 00:00:00 | 00:00:00 | |
| LY3OO-11 | 2026-09-01 11:58:35 | 54.96743 | 24.00825 | 43° | 13km/h | 7881m | 6.0m/s | -34.5°C | 72.0% | 0hPa | 0V | 00:00:00 | 00:00:00 | 00:00:00 | |
| LY3OO-11 | 2026-09-01 11:58:14 | 54.96692 | 24.00818 | 264° | 4km/h | 7774m | 5.2m/s | -33.6°C | 70.8% | 0hPa | 0V | 00:00:00 | 00:00:00 | 00:00:00 | |
| LY3OO-11 | 2026-09-01 11:57:53 | 54.96633 | 24.00828 | 307° | 24km/h | 7666m | 5.3m/s | -32.8°C | 70.1% | 0hPa | 0V | 00:00:00 | 00:00:00 | 00:00:00 | |
| LY3OO-11 | 2026-09-01 11:57:32 | 54.96549 | 24.00833 | 327° | 18km/h | 7575m | 5.7m/s | -32.2°C | 72.8% | 0hPa | 0V | 00:00:00 | 00:00:00 | 00:00:00 | |
| LY3OO-11 | 2026-09-01 11:57:12 | 54.96460 | 24.00881 | 286° | 5km/h | 7471m | 4.9m/s | -31.4°C | 72.9% | 0hPa | 0V | 00:00:00 | 00:00:00 | 00:00:00 | |
| LY3OO-11 | 2026-09-01 11:56:51 | 54.96366 | 24.00945 | 354° | 24km/h | 7381m | 4.4m/s | -30.6°C | 74.3% | 0hPa | 0V | 00:00:00 | 00:00:00 | 00:00:00 | |
| LY3OO-11 | 2026-09-01 11:56:31 | 54.96242 | 24.00989 | 5° | 31km/h | 7282m | 5.6m/s | -30.0°C | 76.1% | 0hPa | 0V | 00:00:00 | 00:00:00 | 00:00:00 | |
| LY3OO-11 | 2026-09-01 11:56:11 | 54.96054 | 24.00972 | 356° | 38km/h | 7181m | 5.6m/s | -29.2°C | 75.5% | 0hPa | 0V | 00:00:00 | 00:00:00 | 00:00:00 | |
| LY3OO-11 | 2026-09-01 11:55:50 | 54.95855 | 24.00994 | 4° | 49km/h | 7085m | 4.1m/s | -28.5°C | 74.0% | 0hPa | 0V | 00:00:00 | 00:00:00 | 00:00:00 | |
| LY3OO-11 | 2026-09-01 11:55:29 | 54.95646 | 24.01027 | 17° | 29km/h | 6984m | 3.5m/s | -27.7°C | 78.8% | 0hPa | 0V | 00:00:00 | 00:00:00 | 00:00:00 | |
| LY3OO-11 | 2026-09-01 11:55:09 | 54.95467 | 24.01040 | 344° | 33km/h | 6882m | 3.0m/s | -27.4°C | 82.8% | 0hPa | 0V | 00:00:00 | 00:00:00 | 00:00:00 | |
| LY3OO-11 | 2026-09-01 11:54:49 | 54.95263 | 24.01013 | 356° | 49km/h | 6777m | 5.6m/s | -26.5°C | 81.9% | 0hPa | 0V | 00:00:00 | 00:00:00 | 00:00:00 | |
| LY3OO-11 | 2026-09-01 11:54:28 | 54.95034 | 24.01003 | 354° | 40km/h | 6680m | 3.3m/s | -25.8°C | 82.4% | 0hPa | 0V | 00:00:00 | 00:00:00 | 00:00:00 | |
| LY3OO-11 | 2026-09-01 11:54:08 | 54.94814 | 24.00992 | 3° | 38km/h | 6585m | 6.6m/s | -25.1°C | 78.0% | 0hPa | 0V | 00:00:00 | 00:00:00 | 00:00:00 | |
| LY3OO-11 | 2026-09-01 11:53:47 | 54.94668 | 24.00966 | 19° | 33km/h | 6499m | 5.3m/s | -24.5°C | 74.7% | 0hPa | 0V | 00:00:00 | 00:00:00 | 00:00:00 | |
| LY3OO-11 | 2026-09-01 11:53:27 | 54.94518 | 24.00960 | 338° | 27km/h | 6407m | 3.7m/s | -23.6°C | 58.3% | 0hPa | 0V | 00:00:00 | 00:00:00 | 00:00:00 | |
| LY3OO-11 | 2026-09-01 11:53:06 | 54.94360 | 24.00962 | 8° | 42km/h | 6295m | 6.9m/s | -22.5°C | 59.9% | 0hPa | 0V | 00:00:00 | 00:00:00 | 00:00:00 | |
| LY3OO-11 | 2026-09-01 11:52:46 | 54.94185 | 24.00934 | 12° | 27km/h | 6180m | 6.0m/s | -21.7°C | 72.0% | 0hPa | 0V | 00:00:00 | 00:00:00 | 00:00:00 | |
| LY3OO-11 | 2026-09-01 11:52:25 | 54.94023 | 24.00882 | 11° | 29km/h | 6064m | 4.8m/s | -20.3°C | 88.2% | 0hPa | 0V | 00:00:00 | 00:00:00 | 00:00:00 | |
| LY3OO-11 | 2026-09-01 11:52:04 | 54.93866 | 24.00791 | 13° | 42km/h | 5958m | 4.9m/s | -19.5°C | 87.4% | 0hPa | 0V | 00:00:00 | 00:00:00 | 00:00:00 | |
| LY3OO-11 | 2026-09-01 11:51:43 | 54.93656 | 24.00730 | 8° | 44km/h | 5856m | 6.2m/s | -18.9°C | 88.8% | 0hPa | 0V | 00:00:00 | 00:00:00 | 00:00:00 | |
| LY3OO-11 | 2026-09-01 11:51:22 | 54.93476 | 24.00657 | 20° | 37km/h | 5749m | 5.8m/s | -18.2°C | 88.8% | 0hPa | 0V | 00:00:00 | 00:00:00 | 00:00:00 | |
| LY3OO-11 | 2026-09-01 11:51:01 | 54.93295 | 24.00559 | 12° | 40km/h | 5640m | 5.1m/s | -17.5°C | 86.4% | 0hPa | 0V | 00:00:00 | 00:00:00 | 00:00:00 | |
| LY3OO-11 | 2026-09-01 11:50:40 | 54.93082 | 24.00478 | 9° | 40km/h | 5528m | 6.3m/s | -16.8°C | 84.7% | 0hPa | 0V | 00:00:00 | 00:00:00 | 00:00:00 | |
| LY3OO-11 | 2026-09-01 11:50:19 | 54.92884 | 24.00408 | 10° | 51km/h | 5425m | 3.3m/s | -16.2°C | 85.0% | 0hPa | 0V | 00:00:00 | 00:00:00 | 00:00:00 | |
| LY3OO-11 | 2026-09-01 11:49:58 | 54.92668 | 24.00316 | 18° | 42km/h | 5327m | 5.1m/s | -15.3°C | 86.0% | 0hPa | 0V | 00:00:00 | 00:00:00 | 00:00:00 | |
| LY3OO-11 | 2026-09-01 11:49:37 | 54.92516 | 24.00218 | 17° | 44km/h | 5232m | 4.8m/s | -14.7°C | 87.1% | 0hPa | 0V | 00:00:00 | 00:00:00 | 00:00:00 | |
| LY3OO-11 | 2026-09-01 11:49:17 | 54.92355 | 24.00055 | 36° | 27km/h | 5136m | 4.9m/s | -14.0°C | 86.6% | 0hPa | 0V | 00:00:00 | 00:00:00 | 00:00:00 | |
| LY3OO-11 | 2026-09-01 11:48:35 | 54.92007 | 23.99697 | 28° | 24km/h | 4937m | 5.4m/s | -12.5°C | 85.9% | 0hPa | 0V | 00:00:00 | 00:00:00 | 00:00:00 | |
| LY3OO-11 | 2026-09-01 11:48:14 | 54.91830 | 23.99572 | 32° | 38km/h | 4837m | 5.8m/s | -12.6°C | 84.6% | 0hPa | 0V | 00:00:00 | 00:00:00 | 00:00:00 | |
| LY3OO-11 | 2026-09-01 11:47:53 | 54.91623 | 23.99466 | 13° | 47km/h | 4755m | 2.9m/s | -12.3°C | 84.3% | 0hPa | 0V | 00:00:00 | 00:00:00 | 00:00:00 | |
| LY3OO-11 | 2026-09-01 11:47:34 | 54.91392 | 23.99368 | 13° | 53km/h | 4699m | 3.9m/s | -11.7°C | 80.8% | 0hPa | 0V | 00:00:00 | 00:00:00 | 00:00:00 | |
| LY3OO-11 | 2026-09-01 11:47:13 | 54.91123 | 23.99260 | 28° | 60km/h | 4610m | 2.6m/s | -11.2°C | 76.4% | 0hPa | 0V | 00:00:00 | 00:00:00 | 00:00:00 | |
| LY3OO-11 | 2026-09-01 11:46:53 | 54.90885 | 23.98986 | 38° | 66km/h | 4552m | 5.1m/s | -10.8°C | 91.8% | 0hPa | 0V | 00:00:00 | 00:00:00 | 00:00:00 | |
| LY3OO-11 | 2026-09-01 11:46:32 | 54.90692 | 23.98683 | 43° | 38km/h | 4452m | 8.4m/s | -9.9°C | 92.3% | 0hPa | 0V | 00:00:00 | 00:00:00 | 00:00:00 | |
| LY3OO-11 | 2026-09-01 11:46:12 | 54.90574 | 23.98470 | 42° | 35km/h | 4340m | 6.1m/s | -9.2°C | 96.8% | 0hPa | 0V | 00:00:00 | 00:00:00 | 00:00:00 | |
| LY3OO-11 | 2026-09-01 11:45:50 | 54.90436 | 23.98212 | 49° | 46km/h | 4241m | 4.9m/s | -8.6°C | 96.8% | 0hPa | 0V | 00:00:00 | 00:00:00 | 00:00:00 | |
| LY3OO-11 | 2026-09-01 11:45:30 | 54.90276 | 23.97922 | 41° | 42km/h | 4141m | 7.1m/s | -7.9°C | 96.4% | 0hPa | 0V | 00:00:00 | 00:00:00 | 00:00:00 | |
| LY3OO-11 | 2026-09-01 11:45:08 | 54.90142 | 23.97630 | 56° | 44km/h | 4022m | 8.0m/s | -7.2°C | 94.3% | 0hPa | 0V | 00:00:00 | 00:00:00 | 00:00:00 | |
| LY3OO-11 | 2026-09-01 11:44:48 | 54.89980 | 23.97351 | 53° | 42km/h | 3915m | 6.3m/s | -6.6°C | 94.7% | 0hPa | 0V | 00:00:00 | 00:00:00 | 00:00:00 | |
| LY3OO-11 | 2026-09-01 11:44:26 | 54.89826 | 23.97091 | 41° | 37km/h | 3803m | 4.2m/s | -6.0°C | 92.7% | 0hPa | 0V | 00:00:00 | 00:00:00 | 00:00:00 | |
| LY3OO-11 | 2026-09-01 11:44:06 | 54.89681 | 23.96847 | 58° | 47km/h | 3704m | 3.7m/s | -5.4°C | 99.0% | 0hPa | 0V | 00:00:00 | 00:00:00 | 00:00:00 | |
| LY3OO-11 | 2026-09-01 11:43:44 | 54.89499 | 23.96572 | 45° | 40km/h | 3608m | 5.9m/s | -4.7°C | 99.4% | 0hPa | 0V | 00:00:00 | 00:00:00 | 00:00:00 | |
| LY3OO-11 | 2026-09-01 11:43:24 | 54.89333 | 23.96310 | 43° | 47km/h | 3504m | 4.4m/s | -3.9°C | 95.9% | 0hPa | 0V | 00:00:00 | 00:00:00 | 00:00:00 | |
| LY3OO-11 | 2026-09-01 11:43:03 | 54.89174 | 23.96022 | 53° | 40km/h | 3409m | 4.5m/s | -3.4°C | 95.5% | 0hPa | 0V | 00:00:00 | 00:00:00 | 00:00:00 | |
| LY3OO-11 | 2026-09-01 11:42:45 | 54.89055 | 23.95731 | 60° | 38km/h | 3324m | 4.8m/s | -3.0°C | 96.9% | 0hPa | 0V | 00:00:00 | 00:00:00 | 00:00:00 | |
| LY3OO-11 | 2026-09-01 11:42:23 | 54.88929 | 23.95428 | 52° | 42km/h | 3227m | 4.6m/s | -2.5°C | 97.3% | 0hPa | 0V | 00:00:00 | 00:00:00 | 00:00:00 | |
| LY3OO-11 | 2026-09-01 11:42:01 | 54.88789 | 23.95146 | 58° | 35km/h | 3134m | 3.9m/s | -1.9°C | 95.0% | 0hPa | 0V | 00:00:00 | 00:00:00 | 00:00:00 | |
| LY3OO-11 | 2026-09-01 11:41:40 | 54.88644 | 23.94860 | 49° | 38km/h | 3049m | 4.6m/s | -1.5°C | 96.6% | 0hPa | 0V | 00:00:00 | 00:00:00 | 00:00:00 | |
| LY3OO-11 | 2026-09-01 11:41:20 | 54.88532 | 23.94589 | 54° | 40km/h | 2975m | 5.2m/s | -1.1°C | 94.7% | 0hPa | 0V | 00:00:00 | 00:00:00 | 00:00:00 | |
| LY3OO-11 | 2026-09-01 11:40:59 | 54.88403 | 23.94294 | 52° | 44km/h | 2898m | 5.6m/s | -0.6°C | 98.6% | 0hPa | 0V | 00:00:00 | 00:00:00 | 00:00:00 | |
| LY3OO-11 | 2026-09-01 11:40:40 | 54.88260 | 23.94000 | 62° | 44km/h | 2811m | 5.7m/s | -0.0°C | 98.2% | 0hPa | 0V | 00:00:00 | 00:00:00 | 00:00:00 | |
| LY3OO-11 | 2026-09-01 11:40:19 | 54.88134 | 23.93670 | 66° | 35km/h | 2712m | 5.4m/s | 0.1°C | 97.6% | 0hPa | 0V | 00:00:00 | 00:00:00 | 00:00:00 | |
| LY3OO-11 | 2026-09-01 11:39:57 | 54.88069 | 23.93330 | 72° | 37km/h | 2608m | 5.8m/s | 0.9°C | 94.4% | 0hPa | 0V | 00:00:00 | 00:00:00 | 00:00:00 | |
| LY3OO-11 | 2026-09-01 11:39:36 | 54.87995 | 23.92977 | 76° | 42km/h | 2516m | 4.4m/s | 1.1°C | 94.6% | 0hPa | 0V | 00:00:00 | 00:00:00 | 00:00:00 | |
| LY3OO-11 | 2026-09-01 11:39:15 | 54.87941 | 23.92579 | 82° | 47km/h | 2427m | 4.8m/s | 1.9°C | 0% | 0hPa | 0V | 00:00:00 | 00:00:00 | 00:00:00 | |
| LY3OO-11 | 2026-09-01 11:38:54 | 54.87906 | 23.92156 | 74° | 49km/h | 2329m | 7.1m/s | 2.7°C | 0% | 0hPa | 0V | 00:00:00 | 00:00:00 | 00:00:00 | |
| LY3OO-11 | 2026-09-01 11:38:34 | 54.87842 | 23.91788 | 71° | 47km/h | 2235m | 6.8m/s | 3.3°C | 98.6% | 0hPa | 0V | 00:00:00 | 00:00:00 | 00:00:00 | |
| LY3OO-11 | 2026-09-01 11:38:13 | 54.87745 | 23.91377 | 67° | 47km/h | 2140m | 6.0m/s | 4.0°C | 97.6% | 0hPa | 0V | 00:00:00 | 00:00:00 | 00:00:00 | |
| LY3OO-11 | 2026-09-01 11:37:54 | 54.87669 | 23.90982 | 73° | 44km/h | 2048m | 3.8m/s | 4.8°C | 92.5% | 0hPa | 0V | 00:00:00 | 00:00:00 | 00:00:00 | |
| LY3OO-11 | 2026-09-01 11:37:32 | 54.87595 | 23.90568 | 73° | 49km/h | 1958m | 5.3m/s | 5.7°C | 89.1% | 0hPa | 0V | 00:00:00 | 00:00:00 | 00:00:00 | |
| LY3OO-11 | 2026-09-01 11:37:12 | 54.87524 | 23.90166 | 74° | 46km/h | 1872m | 4.2m/s | 6.5°C | 85.4% | 0hPa | 0V | 00:00:00 | 00:00:00 | 00:00:00 | |
| LY3OO-11 | 2026-09-01 11:36:51 | 54.87446 | 23.89756 | 75° | 42km/h | 1782m | 2.9m/s | 7.0°C | 85.2% | 0hPa | 0V | 00:00:00 | 00:00:00 | 00:00:00 | |
| LY3OO-11 | 2026-09-01 11:36:30 | 54.87379 | 23.89363 | 71° | 44km/h | 1690m | 4.8m/s | 7.7°C | 82.5% | 0hPa | 0V | 00:00:00 | 00:00:00 | 00:00:00 | |
| LY3OO-11 | 2026-09-01 11:36:09 | 54.87299 | 23.88998 | 70° | 42km/h | 1592m | 4.8m/s | 8.5°C | 74.7% | 0hPa | 0V | 00:00:00 | 00:00:00 | 00:00:00 | |
| LY3OO-11 | 2026-09-01 11:35:48 | 54.87248 | 23.88654 | 86° | 38km/h | 1501m | 3.7m/s | 9.0°C | 70.6% | 0hPa | 0V | 00:00:00 | 00:00:00 | 00:00:00 | |
| LY3OO-11 | 2026-09-01 11:35:27 | 54.87217 | 23.88303 | 80° | 42km/h | 1422m | 5.3m/s | 9.2°C | 0% | 0hPa | 0V | 00:00:00 | 00:00:00 | 00:00:00 | |
| LY3OO-11 | 2026-09-01 11:35:08 | 54.87180 | 23.87931 | 84° | 42km/h | 1335m | 4.8m/s | 9.9°C | 0% | 0hPa | 0V | 00:00:00 | 00:00:00 | 00:00:00 | |
| LY3OO-11 | 2026-09-01 11:34:47 | 54.87164 | 23.87545 | 88° | 40km/h | 1246m | 4.1m/s | 10.3°C | 0% | 0hPa | 0V | 00:00:00 | 00:00:00 | 00:00:00 | |
| LY3OO-11 | 2026-09-01 11:34:25 | 54.87184 | 23.87193 | 91° | 46km/h | 1153m | 1.7m/s | 10.9°C | 0% | 0hPa | 0V | 00:00:00 | 00:00:00 | 00:00:00 | |
| LY3OO-11 | 2026-09-01 11:33:53 | 54.87234 | 23.86602 | 96° | 38km/h | 1006m | 5.4m/s | 12.1°C | 0% | 0hPa | 0V | 00:00:00 | 00:00:00 | 00:00:00 | |
| LY3OO-11 | 2026-09-01 11:33:25 | 54.87291 | 23.86090 | 99° | 44km/h | 874m | 7.2m/s | 12.6°C | 0% | 0hPa | 0V | 00:00:00 | 00:00:00 | 00:00:00 | |
| LY3OO-11 | 2026-09-01 11:32:51 | 54.87437 | 23.85453 | 120° | 44km/h | 734m | 3.9m/s | 0°C | 0% | 0hPa | 0V | 00:00:00 | 00:00:00 | 00:00:00 |